This is the latest recevied weather packets stored in our database for station/object N5CSU. If no packets are shown the sender has not sent any weather packets the latest 10 day(s).
| Time | Temp. | Humidity | Pressure | Rain* | Wind** | Luminosity | Snow |
|---|---|---|---|---|---|---|---|
| 1777919808 | 25° C | 58% | 1011 hPa | 0 mm | - | 55 W/m² | - |
| 1777919505 | 25.56° C | 55% | 1011 hPa | 0 mm | - | 27 W/m² | - |
| 1777919203 | 25° C | 56% | 1011.1 hPa | 0 mm | - | 53 W/m² | - |
| 1777918900 | 25° C | 55% | 1011.5 hPa | 0 mm | - | 33 W/m² | - |
| 1777918597 | 25° C | 55% | 1011.4 hPa | 0 mm | - | 26 W/m² | - |
| 1777918295 | 25° C | 56% | 1011.5 hPa | 0 mm | - | 45 W/m² | - |
| 1777917994 | 25° C | 55% | 1011.5 hPa | 0 mm | - | 22 W/m² | - |
| 1777917692 | 25° C | 53% | 1011.3 hPa | 0 mm | - | 27 W/m² | - |
| 1777917389 | 25° C | 54% | 1011.6 hPa | 0 mm | - | 35 W/m² | - |
| 1777917085 | 25° C | 53% | 1011.9 hPa | 0 mm | - | 267 W/m² | - |
| 1777916784 | 25° C | 52% | 1011.9 hPa | 0 mm | - | 30 W/m² | - |
| 1777916480 | 25° C | 55% | 1011.9 hPa | 0 mm | - | 53 W/m² | - |
| 1777916177 | 25° C | 53% | 1011.8 hPa | 0 mm | - | 507 W/m² | - |
| 1777915875 | 25° C | 53% | 1012 hPa | 0 mm | - | 109 W/m² | - |
| 1777915570 | 25° C | 53% | 1012.1 hPa | 0 mm | - | 42 W/m² | - |
| 1777915268 | 24.44° C | 51% | 1012 hPa | 0 mm | - | 37 W/m² | - |
| 1777914964 | 24.44° C | 53% | 1012.2 hPa | 0 mm | - | 40 W/m² | - |
| 1777914661 | 24.44° C | 52% | 1012.2 hPa | 0 mm | - | 129 W/m² | - |
| 1777914357 | 24.44° C | 53% | 1012.4 hPa | 0 mm | - | 71 W/m² | - |
| 1777914055 | 23.89° C | 53% | 1012.8 hPa | 0 mm | - | 170 W/m² | - |
| 1777913750 | 23.89° C | 51% | 1012.8 hPa | 0 mm | - | 108 W/m² | - |
| 1777913448 | 23.89° C | 52% | 1012.9 hPa | 0 mm | - | 50 W/m² | - |
| 1777913144 | 23.89° C | 56% | 1012.9 hPa | 0 mm | - | 35 W/m² | - |
| 1777912840 | 23.33° C | 54% | 1013 hPa | 0 mm | - | 119 W/m² | - |
| 1777912537 | 23.33° C | 56% | 1013 hPa | 0 mm | - | 275 W/m² | - |
* Rain latest hour (hover to see other rain measurements)
** Current wind speed in m/s (hover to see current wind gust speed)